Regional Weather Roundup
Issued by NWS

Home | Current Version | Previous Version | Text Only | Print | Product List | Glossary Off
Versions: 1 2 3 4 5 6 7 8 9 10 11 12 13 14 15 16 17 18 19 20 21 22 23 24 25 26 27 28 29 30 31 32 33 34 35 36 37 38 39 40 41 42 43 44 45 46 47 48 49 50

000
ASUS43 KLOT 270712
RWRIL

ILLINOIS REGIONAL WEATHER ROUNDUP
NATIONAL WEATHER SERVICE CHICAGO/ROMEOVILLE IL
200 AM CDT WED MAY 27 2015

NOTE: "FAIR" INDICATES FEW OR NO CLOUDS BELOW 12,000 FEET WITH NO
SIGNIFICANT WEATHER AND/OR OBSTRUCTIONS TO VISIBILITY.

* THESE STATIONS ARE NOT UNDER NWS QUALITY CONTROL. THEY ALSO MAY NOT
  REPORT WEATHER SUCH AS PRECIPITATION OR FOG.

ILZ001-002-007-009-015-016-024-270800-
NORTHWEST ILLINOIS

CITY           SKY/WX    TMP DP  RH WIND       PRES   REMARKS
MOLINE         PTCLDY    63  59  87 SW9       29.85S
STERLING*      PTCLDY    64  61  88 SW8       29.85R
SAVANNA*       CLEAR     65  60  86 SW9       29.83S
$$

ILZ003-004-008-010-011-017-018-270800-
NORTH CENTRAL ILLINOIS

CITY           SKY/WX    TMP DP  RH WIND       PRES   REMARKS
ROCKFORD       MOCLDY    64  60  87 SW6       29.84S
FREEPORT*      MOCLDY    61  60  96 SW5       29.84S
ROCHELLE*      CLEAR     62  61  97 SW8       29.85S
DE KALB*       PTCLDY    62  60  94 SW8       29.85S
PERU*          CLEAR     66  62  89 SW12      29.87S
$$

ILZ005-006-012>014-019>023-270800-
NORTHEAST ILLINOIS

CITY           SKY/WX    TMP DP  RH WIND       PRES   REMARKS
CHICAGO-OHARE  CLOUDY    67  61  81 SW9       29.83F
CHICAGO-MIDWAY MOCLDY    68  63  84 SW14      29.84S
AURORA         MOCLDY    66  60  81 SW14      29.85S
LANSING*       CLOUDY    69  58  68 SW13G25   29.87S
JOLIET*        MOCLDY    67  64  90 SW6       29.87S
WAUKEGAN       CLOUDY    63  62  97 SW10      29.81F
DUPAGE AIRPORT CLOUDY    66  61  84 SW14      29.84S
KANKAKEE*      PTCLDY    66  61  84 SW15G23   29.90S
WHEELING       MOCLDY    65  62  90 VRB3      29.84F
MORRIS*        MOCLDY    66  62  88 SW10      29.85F
ROMEOVILLE*    CLOUDY    65  61  87 SW15G23   29.86F
NORTHERLY ISL    N/A     68  60  75 S9          N/A
$$

LMZ740>746-270800-
SOUTHERN LAKE MICHIGAN

STATION/POSITION SKY/WX   TEMP    WIND        PRES    VSBY  WAVE
                          AIR SEA DIR/SP/G                  HT/PER
                          (F)     (DEG/KT/KT) (MB)    (MI)  (FT/S)
SOUTHERN BUOY              47 38  190/ 14/ 16 1010.0S         2/ 4
HARRISON CRIB              69     200/ 26/ 33   N/A
BURNHAM HARBOR             68     200/  8/ 23   N/A
CALUMET HARBOR             68     200/ 16/ 23   N/A
BURNS HARBOR               69     210/ 22     1011.9S
MICHIGAN CITY              69     170/ 16/ 21   N/A
MICHIGAN CITY 6N           64 52  210/ 16/ 25   N/A           2/ 3
ST. JOSEPH                 63 55  230/ 16/ 17   N/A           3/ 4
$$

ILZ025>027-034>036-040-047-049-050-058-095>099-270800-
WEST-CENTRAL ILLINOIS

CITY           SKY/WX    TMP DP  RH WIND       PRES   REMARKS
QUINCY         MOCLDY    65  63  93 S5        29.92S
GALESBURG*     PTCLDY    63  60  90 SW8       29.89S
MACOMB*        PTCLDY    65  61  85 SW5       29.92S
JACKSONVILLE*  PTCLDY    69  63  80 SW8       29.93S
PITTSFIELD*    LGT RAIN  70  62  75 SW8       29.95R
$$

ILZ028>032-037-038-041>044-048-051>054-059>061-270800-
CENTRAL ILLINOIS

CITY           SKY/WX    TMP DP  RH WIND       PRES   REMARKS
PONTIAC        CLEAR     69  63  81 SW15G22   29.90S
BLOOMINGTON    PTCLDY    67  63  87 SW15      29.93S
DECATUR        CLEAR     67  60  78 SW15      29.94F
PEORIA         PTCLDY    70  61  73 SW10      29.90S
LACON*         PTCLDY    63  61  93 CALM      29.87S
LINCOLN*       PTCLDY    68  62  80 SW7       29.91R
SPRINGFIELD    MOCLDY    69  62  78 S13       29.93S
TAYLORVILLE    CLEAR     64  61  88 S7        29.96R
$$

ILZ033-039-045-046-055>057-062-063-270800-
EAST-CENTRAL ILLINOIS

CITY           SKY/WX    TMP DP  RH WIND       PRES   REMARKS
CHAMPAIGN      CLEAR     66  60  81 S14       29.95F
DANVILLE*      CLEAR     65  60  83 SW13      29.93S
RANTOUL*       PTCLDY    69  62  77 SW13G20   29.94S
MATTOON        CLEAR     66  61  84 S8        29.96F
PARIS*         CLEAR     67  62  84 SW12      29.98F
$$

ILZ079-100>102-270800-
SOUTHWEST ILLINOIS

CITY           SKY/WX    TMP DP  RH WIND       PRES   REMARKS
ALTON          CLEAR     67  66  99 S8        29.98R
BELLEVILLE     CLEAR     66  64  93 S6        29.97S
CAHOKIA*       CLEAR     67  61  81 SE5       29.97S
SPARTA*        CLEAR     66  64  91 S9        30.00F
$$

ILZ064>066-069>071-074>076-080>082-084>086-088>090-092>094-270800-
SOUTH-CENTRAL ILLINOIS

CITY           SKY/WX    TMP DP  RH WIND       PRES   REMARKS
CARBONDALE     CLEAR     67  62  84 SW8       30.02S
CAIRO*         CLEAR     64  63  94 CALM      30.05R
EFFINGHAM*     CLEAR     66  61  83 S6        29.99F
MARION         CLEAR     66  63  88 SW8       30.03S
MT. VERNON     CLEAR     66  61  82 S8        30.02S
CENTRALIA*     CLEAR     66  62  87 S9        29.99S
SALEM*         CLEAR     69  64  82 S10       29.99F
METROPOLIS*    CLEAR     64  64 100 CALM      30.04S
$$

ILZ067-068-072-073-078-083-087-091-270800-
SOUTHEAST ILLINOIS

CITY           SKY/WX    TMP DP  RH WIND       PRES   REMARKS
LAWRENCEVILLE  CLEAR     66  61  84 S7        30.01F
FLORA*         CLEAR     66  62  86 S9        30.00F
FAIRFIELD*     CLEAR     66  63  88 S7        29.99F
HARRISBURG*    CLEAR     65  63  93 CALM      30.04S
ROBINSON*      CLEAR     67  62  83 SW9       30.01F
CARMI*         CLEAR     64  57  77 S6        30.01F
$$

ABBREVIATIONS USED IN REMARKS
   TC - TEMPERATURE IN CELSIUS
  WCI - WIND CHILL INDEX
   HX - HEAT INDEX
  VSB - VISIBILITY
$$



USA.gov is the U.S. government's official web portal to all federal, state and local government web resources and services.